Location: Gull Harbor
(47.1000°N, 122.9000°W)
Time: 16:42:26
(UTC-08:00)

BlueWalker 3 - Visible Passes

Search period start: 30 January 2023 00:00
Search period end: 09 February 2023 00:00
Orbit: 499 x 517 km, 53.2° (Epoch: 30 January)

Date Brightness Start Highest point End Pass type
(mag) Time Alt. Az. Time Alt. Az. Time Alt. Az.
30 Jan 2.1 17:57:16 10° WSW 18:01:08 72° NNW 18:04:43 12° ENE visible
30 Jan 3.4 19:36:37 10° WNW 19:39:31 31° NNW 19:39:31 31° NNW visible
31 Jan 3.1 19:17:43 10° WNW 19:21:17 33° N 19:21:24 33° N visible
01 Feb 3.0 18:58:48 10° WNW 19:02:22 33° N 19:03:17 29° NNE visible
01 Feb 5.2 20:37:52 10° WNW 20:38:04 11° NW 20:38:04 11° NW visible
02 Feb 3.1 18:39:53 10° WNW 18:43:26 33° N 18:45:09 23° NE visible
02 Feb 4.7 20:18:55 10° WNW 20:19:56 17° NW 20:19:56 17° NW visible
03 Feb 3.1 18:20:58 10° WNW 18:24:30 33° N 18:27:00 16° NE visible
03 Feb 4.0 19:59:58 10° WNW 20:01:48 24° NW 20:01:48 24° NW visible
04 Feb 3.1 18:02:01 10° WNW 18:05:33 32° N 18:08:53 11° ENE visible
04 Feb 3.2 19:41:00 10° WNW 19:43:41 35° NNW 19:43:41 35° NNW visible
05 Feb 2.5 19:22:02 10° WNW 19:25:35 46° N 19:25:35 46° N visible
06 Feb 2.3 19:03:03 10° WNW 19:06:50 48° NNE 19:07:31 42° NE visible
06 Feb 5.1 20:41:45 10° WNW 20:42:19 14° WNW 20:42:19 14° WNW visible
07 Feb 2.3 18:44:03 10° WNW 18:47:51 49° NNE 18:49:31 29° E visible
07 Feb 4.4 20:22:46 10° WNW 20:24:19 21° W 20:24:19 21° W visible
08 Feb 2.3 18:25:03 10° WNW 18:28:52 51° NNE 18:31:35 18° E visible
08 Feb 3.6 20:03:47 10° WNW 20:06:24 33° WSW 20:06:24 33° WSW visible
